#timestamp,LO_Frequency,Hit,StdDev 
1518274815.5,286047000.5,N
1518274835.3,286047000.7,N
1518274855.2,286046998.7,N
1518274875.0,286047002.7,N
1518274875.9,286047002.7,N
1518274895.8,286047001.8,N
1518274915.6,286047002.8,N
1518274935.4,286047003.2,N
1518274955.3,286047001.6,N
1518274975.1,286046998.5,N
1518274995.9,286047000.8,N
1518275015.7,286047002.5,N
1518275035.5,286047002.8,N
1518275055.4,286047000.7,N
1518275075.2,286047000.8,N
1518275095.1,286046998.3,N
1518275096.0,286046998.3,N
1518275115.8,286046998.2,N
1518275135.6,286047000.7,N
1518275155.5,286047002.6,N
1518275175.3,286047002.8,N
1518275195.1,286047000.2,N
1518275215.9,286046998.6,N
1518275235.7,286046999.4,N
1518275255.6,286047001.0,N
1518275275.4,286047001.4,N
1518275295.2,286047004.3,N
1518275315.1,286047004.4,N
1518275316.0,286047004.4,N
1518275335.8,286047002.6,N
1518275355.6,286047002.6,N
1518275375.5,286047000.1,N
1518275395.3,286047001.0,N
1518275415.2,286046998.8,N
1518275435.9,286046998.3,N
1518275455.7,286047001.2,N
1518275475.6,286047001.1,N
1518275495.4,286047001.0,N
1518275515.2,286047000.0,N
1518275535.1,286046999.9,N
1518275536.0,286046999.9,N
1518275555.8,286047000.8,N
1518275575.7,286047000.3,N
1518275595.5,286047002.7,N
1518275615.3,286047001.9,N
1518275635.2,286047002.0,N
1518275655.0,286047002.0,N
1518275655.9,286047002.0,N
1518275675.8,286047004.2,N
1518275695.6,286047001.4,N
1518275715.4,286047002.7,N
1518275735.3,286047001.4,N
1518275755.1,286046999.7,N
1518275775.8,286046999.5,N
1518275795.7,286047001.0,N
1518275815.5,286047000.2,N
1518275835.4,286047004.4,N
1518275855.2,286047003.4,N
1518275875.0,286047004.9,Y
1518275875.9,286047004.9,P
1518275895.8,286047004.8,N
1518275915.6,286047004.3,N
1518275935.4,286047001.5,N
1518275955.3,286047002.6,N
1518275975.1,286047000.5,N
1518275995.9,286046998.2,N
1518276015.7,286047001.1,N
1518276035.5,286047001.2,N
1518276055.4,286046998.4,N
1518276075.2,286046998.6,N
1518276095.0,286047001.1,N
1518276095.9,286047001.1,N
1518276115.8,286047002.8,N
1518276135.6,286047001.8,N
1518276155.5,286047002.6,N
1518276175.3,286047002.4,N
1518276195.1,286047000.5,N
1518276215.9,286047000.9,N
1518276235.7,286047000.6,N
1518276255.5,286046999.4,N
1518276275.4,286047000.6,N
1518276295.2,286047000.8,N
1518276315.1,286047000.9,N
1518276316.0,286047000.9,N
1518276335.8,286047001.2,N
1518276355.6,286046998.1,N
1518276375.5,286047001.2,N
1518276395.3,286047000.0,N
1518276415.1,286046998.8,N
1518276435.9,286047001.1,N
1518276455.7,286046999.8,N
1518276475.6,286047001.1,N
1518276495.4,286046999.4,N
1518276515.2,286046998.5,N
1518276535.1,286046999.5,N
1518276536.0,286046999.5,N
1518276555.8,286046997.6,N
1518276575.7,286046999.3,N
1518276595.5,286047000.5,N
1518276615.3,286046998.1,N
1518276635.2,286047000.4,N
1518276655.0,286047002.8,N
1518276655.9,286047002.8,N
1518276675.8,286047001.4,N
1518276695.6,286047001.7,N
1518276715.4,286047001.7,N
1518276735.3,286047003.4,N
1518276755.1,286047002.6,N
1518276775.8,286047000.3,N
1518276795.7,286047001.0,N
1518276815.5,286046999.8,N
1518276835.4,286047003.8,N
1518276855.2,286047003.6,N
1518276875.0,286047001.3,N
1518276875.9,286047001.3,N
1518276895.8,286047000.1,N
1518276915.6,286047002.5,N
1518276935.5,286047000.7,N
1518276955.3,286046998.1,N
1518276975.1,286046998.2,N
1518276995.9,286046998.9,N
1518277015.7,286047000.6,N
1518277035.5,286047000.9,N
1518277055.4,286047000.0,N
1518277075.2,286047002.1,N
1518277095.1,286047002.7,N
1518277096.0,286047002.7,N
1518277115.8,286046999.8,N
1518277135.6,286047003.9,N
1518277155.5,286047002.8,N
1518277175.3,286047003.4,N
1518277195.2,286047004.2,N
1518277215.9,286047002.2,N
1518277265.8,286047000.3,E
1518277275.7,286047000.4,N
1518277295.5,286046999.5,P
1518277315.4,286046999.1,N
1518277335.2,286047000.4,N
1518277355.0,286047000.7,N
1518277355.9,286047000.7,N
1518277375.8,286046999.7,N
1518277395.6,286046999.9,N
1518277415.4,286047000.3,N
1518277435.3,286047000.2,N
1518277455.1,286047000.6,N
1518277475.9,286046998.1,Y
1518277495.7,286047000.6,P
1518277515.5,286047001.5,P
1518277535.4,286047000.2,N
1518277555.2,286047002.0,Y
1518277575.1,286047000.3,P
1518277576.0,286047000.3,N
1518277595.8,286046998.7,P
1518277615.6,286047000.5,N
1518277635.5,286047002.2,Y
1518277655.3,286047000.9,P
1518277675.2,286046999.8,N
1518277695.0,286047001.7,P
1518277695.9,286047001.7,N
1518277715.8,286047002.1,N
1518277735.6,286047000.5,N
1518277755.4,286047000.7,N
1518277775.3,286046999.6,N
1518277795.1,286046998.6,N
1518277815.9,286047001.0,N
1518277835.7,286046998.1,N
1518277855.5,286047000.7,N
1518277875.4,286047000.2,N
1518277895.2,286046999.0,N
1518277915.1,286047000.6,N
1518277916.0,286047000.6,N
1518277935.8,286047000.0,N
1518277955.6,286047000.1,N
1518277975.5,286047002.4,N
1518277995.3,286047001.9,N
1518278015.2,286047003.2,N
1518278035.9,286047003.6,N
1518278055.7,286047006.5,Y
1518278075.6,286047015.0,P
1518278095.4,286047014.9,N
1518278115.3,286047011.0,N
1518278135.1,286047020.4,Y
1518278136.0,286047020.4,P
1518278155.8,286047012.1,N
1518278175.7,286047009.0,N
1518278195.5,286047004.5,N
1518278215.3,286047008.7,N
1518278235.2,286047006.0,N
1518278255.0,286047001.6,N
1518278255.9,286047001.6,N
1518278275.8,286047000.5,N
1518278295.6,286047001.0,N
1518278315.4,286046997.1,N
1518278335.3,286046998.0,N
1518278355.1,286046995.5,N
1518278375.9,286046996.1,N
1518278395.7,286046993.5,N
